Weather History for Tillamook, OR

Change the Weather History Date:

Friday, November 2, 2012

  Actual Average (KMMV) Record (KMMV)
Temperature  
Mean Temperature 54 °F 48 °F  
Max Temperature 57 °F 56 °F 75 °F (1930)
Min Temperature 50 °F 39 °F 14 °F (1936)
Degree Days  
Heating Degree Days 12 17  
Month to date heating degree days 34  
Since 1 July heating degree days 657  
Cooling Degree Days 0 0  
Month to date cooling degree days 0  
Year to date cooling degree days 215  
Growing Degree Days 4 (Base 50)    
Moisture  
Dew Point 53 °F    
Average Humidity 97    
Maximum Humidity 100    
Minimum Humidity 82    
Precipitation  
Precipitation 0.42 in 0.19 in 2.30 in (1984)
Month to date precipitation 0.38  
Year to date precipitation 27.24  
Snow  
Snow 0.00 in - - ()
Month to date snowfall  
Since 1 July snowfall  
Since 1 September snowfall  
Snow Depth -    
Sea Level Pressure  
Sea Level Pressure 29.98 in    
Wind  
Wind Speed 1 mph (East)    
Max Wind Speed 7 mph    
Max Gust Speed -    
Visibility 8 miles    
Events Fog , Rain    
T = Trace of Precipitation, MM = Missing Value Source: NWS Daily Summary

Daily Weather History Graph

Daily Weather History Graph

Search for Another Location

Airport:

Trip Planner

Search our weather history database for the weather conditions in past years. The results will help you decide how hot, cold, wet, or windy it might be!

Date:

Astronomy

Nov. 02, 2012 Rise Set
Actual Time 8:56 AM MDT 7:00 PM MDT
Civil Twilight 8:25 AM MDT 7:31 PM MDT
Nautical Twilight 7:50 AM MDT 8:06 PM MDT
Astronomical Twilight 7:16 AM MDT 8:40 PM MDT
Moon 9:46 PM MDT (11/2) 12:27 PM MDT (11/2)
Length of Visible Light 11h 05m
Length of Day
10h 03m
Waning Gibbous, 87% of the Moon is Illuminated
Nov 2
Waning Gibbous
Nov 6
Last Quarter
Nov 13
New
Nov 20
First Quarter
Nov 28
Full

Hourly Weather History & Observations

Time (MDT) Temp. Dew Point Humidity Pressure Visibility Wind Dir Wind Speed Gust Speed Precip Events Conditions
12:15 AM 55.4 °F 55.4 °F 100% 30.01 in 10.0 mi East 4.6 mph - N/A   Mostly Cloudy
12:35 AM 53.6 °F 53.6 °F 100% 30.01 in 10.0 mi NE 4.6 mph - N/A   Scattered Clouds
12:55 AM 53.6 °F 53.6 °F 100% 30.01 in 10.0 mi Calm Calm - N/A   Clear
1:15 AM 53.6 °F 53.6 °F 100% 30.00 in 5.0 mi Calm Calm - N/A   Clear
1:35 AM 51.8 °F 51.8 °F 100% 30.01 in 0.5 mi Calm Calm - N/A Fog Fog
1:55 AM 51.8 °F 51.8 °F 100% 30.02 in 0.8 mi Calm Calm - N/A   Mostly Cloudy
2:15 AM 51.8 °F 51.8 °F 100% 30.02 in 7.0 mi Calm Calm - N/A   Clear
2:35 AM 51.8 °F 51.8 °F 100% 30.03 in 3.0 mi Calm Calm - N/A   Clear
2:55 AM 51.8 °F 51.8 °F 100% 30.03 in 7.0 mi Calm Calm - N/A   Clear
3:15 AM 50.0 °F 50.0 °F 100% 30.03 in 3.0 mi Calm Calm - N/A   Clear
3:35 AM 50.0 °F 50.0 °F 100% 30.03 in 3.0 mi Calm Calm - N/A   Scattered Clouds
3:55 AM 50.0 °F 50.0 °F 100% 30.03 in 7.0 mi Calm Calm - N/A   Scattered Clouds
4:15 AM 50.0 °F 50.0 °F 100% 30.02 in 10.0 mi Calm Calm - N/A   Clear
4:35 AM 50.0 °F 50.0 °F 100% 30.02 in 10.0 mi Calm Calm - N/A   Clear
4:55 AM 50.0 °F 50.0 °F 100% 30.02 in 5.0 mi Calm Calm - N/A   Clear
5:15 AM 50.0 °F 50.0 °F 100% 30.01 in 3.0 mi Calm Calm - N/A   Clear
5:35 AM 50.0 °F 50.0 °F 100% 30.00 in 10.0 mi Calm Calm - N/A   Clear
5:55 AM 50.0 °F 50.0 °F 100% 30.00 in 10.0 mi Calm Calm - N/A   Clear
6:15 AM 50.0 °F 50.0 °F 100% 29.99 in 7.0 mi Calm Calm - N/A   Clear
6:35 AM 50.0 °F 50.0 °F 100% 29.98 in 10.0 mi Calm Calm - N/A   Clear
6:55 AM 50.0 °F 50.0 °F 100% 29.98 in 10.0 mi Calm Calm - N/A   Clear
7:15 AM 50.0 °F 50.0 °F 100% 30.00 in 10.0 mi WSW 4.6 mph - N/A   Clear
7:35 AM 50.0 °F 50.0 °F 100% 30.00 in 10.0 mi Calm Calm - N/A   Clear
7:55 AM 50.0 °F 50.0 °F 100% 30.00 in 7.0 mi Calm Calm - N/A   Scattered Clouds
8:15 AM 50.0 °F 50.0 °F 100% 29.99 in 10.0 mi SE 5.8 mph - N/A   Scattered Clouds
8:35 AM 50.0 °F 50.0 °F 100% 29.99 in 10.0 mi SSW 3.5 mph - N/A   Scattered Clouds
8:55 AM 51.8 °F 51.8 °F 100% 29.99 in 10.0 mi Calm Calm - N/A   Mostly Cloudy
9:15 AM 50.0 °F 50.0 °F 100% 29.99 in 10.0 mi Calm Calm - N/A   Overcast
9:35 AM 51.8 °F 51.8 °F 100% 30.00 in 10.0 mi Calm Calm - N/A   Overcast
9:55 AM 51.8 °F 51.8 °F 100% 30.00 in 10.0 mi Calm Calm - N/A   Overcast
10:15 AM 51.8 °F 51.8 °F 100% 30.00 in 10.0 mi Calm Calm - N/A   Overcast
10:35 AM 51.8 °F 51.8 °F 100% 30.00 in 10.0 mi Calm Calm - N/A   Overcast
10:55 AM 53.6 °F 53.6 °F 100% 30.00 in 10.0 mi Calm Calm - N/A   Overcast
11:15 AM 53.6 °F 53.6 °F 100% 29.99 in 10.0 mi Calm Calm - N/A   Overcast
11:35 AM 55.4 °F 55.4 °F 100% 29.99 in 7.0 mi Calm Calm - N/A   Overcast
11:55 AM 55.4 °F 55.4 °F 100% 30.00 in 2.0 mi Calm Calm - N/A   Overcast
12:15 PM 55.4 °F 55.4 °F 100% 29.99 in 7.0 mi Calm Calm - N/A   Light Drizzle
12:35 PM 55.4 °F 55.4 °F 100% 29.99 in 7.0 mi Calm Calm - N/A   Overcast
12:55 PM 57.2 °F 57.2 °F 100% 30.00 in 10.0 mi WSW 3.5 mph - N/A   Light Drizzle
1:15 PM 57.2 °F 57.2 °F 100% 29.99 in 10.0 mi Calm Calm - N/A   Light Drizzle
1:35 PM 57.2 °F 55.4 °F 94% 29.99 in 10.0 mi Calm Calm - 0.01 in Rain Light Rain
1:55 PM 57.2 °F 55.4 °F 94% 29.98 in 10.0 mi Calm Calm - 0.01 in   Drizzle
2:15 PM 57.2 °F 57.2 °F 100% 29.98 in 7.0 mi Calm Calm - N/A Rain Light Rain
2:35 PM 57.2 °F 57.2 °F 100% 29.98 in 5.0 mi Calm Calm - 0.02 in Rain Rain
2:55 PM 57.2 °F 57.2 °F 100% 29.97 in 10.0 mi ENE 3.5 mph - 0.04 in Rain Light Rain
3:15 PM 57.2 °F 55.4 °F 94% 29.97 in 10.0 mi East 3.5 mph - N/A Rain Light Rain
3:35 PM 57.2 °F 55.4 °F 94% 29.97 in 4.0 mi ESE 3.5 mph - 0.03 in Rain Rain
3:55 PM 55.4 °F 53.6 °F 94% 29.96 in 5.0 mi NE 3.5 mph - 0.06 in Rain Light Rain
4:15 PM 55.4 °F 53.6 °F 94% 29.96 in 10.0 mi NE 6.9 mph - N/A   Overcast
4:35 PM 55.4 °F 53.6 °F 94% 29.95 in 10.0 mi ENE 4.6 mph - N/A Rain Light Rain
4:55 PM 57.2 °F 53.6 °F 88% 29.94 in 10.0 mi East 3.5 mph - N/A Rain Rain
5:15 PM 57.2 °F 51.8 °F 82% 29.94 in 10.0 mi East 4.6 mph - 0.01 in Rain Light Rain
5:35 PM 57.2 °F 51.8 °F 82% 29.95 in 10.0 mi ENE 6.9 mph - 0.02 in Rain Light Rain
5:55 PM 57.2 °F 51.8 °F 82% 29.95 in 10.0 mi East 4.6 mph - 0.02 in   Overcast
6:15 PM 55.4 °F 51.8 °F 88% 29.95 in 10.0 mi East 3.5 mph - N/A Rain Rain
6:35 PM 55.4 °F 53.6 °F 94% 29.96 in 7.0 mi Calm Calm - N/A Rain Rain
6:55 PM 55.4 °F 53.6 °F 94% 29.96 in 7.0 mi South 3.5 mph - 0.01 in Rain Rain
7:15 PM 55.4 °F 53.6 °F 94% 29.95 in 7.0 mi Calm Calm - 0.04 in Rain Rain
7:35 PM 55.4 °F 53.6 °F 94% 29.96 in 7.0 mi Calm Calm - 0.06 in Rain Light Rain
7:55 PM 55.4 °F 53.6 °F 94% 29.96 in 3.0 mi Calm Calm - 0.13 in Rain Heavy Rain
8:15 PM 53.6 °F 51.8 °F 94% 29.96 in 7.0 mi ENE 4.6 mph - 0.09 in Rain Light Rain
8:35 PM 55.4 °F 51.8 °F 88% 29.96 in 10.0 mi Calm Calm - 0.09 in   Overcast
8:55 PM 53.6 °F 53.6 °F 100% 29.95 in 10.0 mi Calm Calm - 0.09 in   Overcast
9:15 PM 53.6 °F 53.6 °F 100% 29.95 in 10.0 mi Calm Calm - 0.01 in Rain Light Rain
9:35 PM 55.4 °F 53.6 °F 94% 29.95 in 7.0 mi Calm Calm - 0.02 in Rain Rain
9:55 PM 55.4 °F 51.8 °F 88% 29.95 in 5.0 mi Calm Calm - 0.03 in Rain Rain
10:15 PM 55.4 °F 51.8 °F 88% 29.95 in 7.0 mi Calm Calm - 0.02 in Rain Light Rain
10:35 PM 55.4 °F 51.8 °F 88% 29.96 in 10.0 mi Calm Calm - 0.02 in   Overcast
10:55 PM 55.4 °F 53.6 °F 94% 29.96 in 10.0 mi Calm Calm - 0.02 in   Overcast
11:15 PM 55.4 °F 53.6 °F 94% 29.96 in 10.0 mi Calm Calm - N/A   Overcast
11:35 PM 55.4 °F 53.6 °F 94% 29.96 in 7.0 mi Calm Calm - N/A Rain Rain
11:55 PM 55.4 °F 53.6 °F 94% 29.96 in 4.0 mi Calm Calm - 0.01 in   Heavy Drizzle